Regional Weather Roundup
Issued by NWS

Home | Current Version | Previous Version | Text Only | Print | Product List | Glossary On
Versions: 1 2 3 4 5 6 7 8 9 10 11 12 13 14 15 16 17 18 19 20 21 22 23 24 25 26 27 28 29 30 31 32 33 34 35 36 37 38 39 40 41 42 43 44 45 46 47 48 49 50
000
ASUS43 KFSD 192010
RWRSD

WEATHER ROUNDUP FOR SOUTH DAKOTA
NATIONAL WEATHER SERVICE SIOUX FALLS SD
300 PM CDT SAT AUG 19 2017

NOTE: "FAIR" INDICATES FEW OR NO CLOUDS BELOW 12,000 FEET WITH NO
SIGNIFICANT WEATHER AND/OR OBSTRUCTIONS TO VISIBILITY.


SDZ001>005-009-010-012>017-192100-
NORTHWEST AND NORTH CENTRAL SOUTH DAKOTA

CITY           SKY/WX    TMP DP  RH WIND       PRES   REMARKS
BUFFALO          N/A     86  38  18 NW15      29.82R
FAITH            N/A     95  42  16 W8        29.80F
MOBRIDGE       SUNNY     85  65  51 S12       29.76S
$$

SDZ012>016-024>037-041>051-057-063-072>074-192100-
SOUTHWEST AND SOUTH CENTRAL SOUTH DAKOTA

CITY           SKY/WX    TMP DP  RH WIND       PRES   REMARKS
RAPID CTY ARPT SUNNY     93  42  17 N6        29.86S
PIERRE         SUNNY     91  59  33 S14       29.76F
CUSTER         PTSUNNY   84  37  18 VRB7      30.04S
ELLSWORTH AFB  SUNNY     92  45  19 N10       29.86S
PHILIP         SUNNY     97  49  19 MISG      29.77F
PINE RIDGE     SUNNY     94  43  17 VRB3      29.87F
SPEARFISH      FAIR      90  37  15 N14       29.93S
WINNER         FAIR      89  62  40 S14G26    29.81F
$$

SDZ004>011-016>023-039-040-192100-
NORTHEAST SOUTH DAKOTA

CITY           SKY/WX    TMP DP  RH WIND       PRES   REMARKS
ABERDEEN       SUNNY     82  61  48 S17G25    29.81F
WATERTOWN      SUNNY     77  58  51 S17       29.87F
BROOKINGS      SUNNY     77  61  57 SE13      29.90F
SISSETON         N/A     80  65  59 S15       29.83F
$$

SDZ017-020-022-023-036>040-048>070-192100-
SOUTHEAST SOUTH DAKOTA

CITY           SKY/WX    TMP DP  RH WIND       PRES   REMARKS
SIOUX FALLS    SUNNY     80  63  55 S12       29.90F
HURON          SUNNY     82  59  45 SE18G28   29.82F
CHAMBERLAIN    SUNNY     87  66  50 SE16      29.82F
MITCHELL       SUNNY     83  60  45 SE17      29.84F
YANKTON        SUNNY     82  63  52 SE13      29.89F
$$

ABBREVIATIONS USED IN REMARKS
   TC - TEMPERATURE IN CELSIUS
  WCI - WIND CHILL INDEX
   HX - HEAT INDEX
  VSB - VISIBILITY





USA.gov is the U.S. government's official web portal to all federal, state and local government web resources and services.